This demonstration page uses our WeatherBlox Daily Observations layout. Learn more.

Left ArrowRight Arrow

34.02893, -84.19858

Hourly Observations for February 27, 2021

Temp ( °F °C ) Dew Point ( °F °C ) Humidity (%) Winds ( mph kmh ) Pressure ( in mb ) Visibility ( mi km ) Precip ( " mm )
12:53 am 00:53 Cloudy with Mist and Fog 46 7.8 45 7.2 96 96 E 7 11 30.16 1021 3 5 0.00 0.00
1:53 am 01:53 Cloudy with Mist and Fog 46 7.8 45 7.2 96 96 Calm 30.17 1022 3 5 0.00 0.00
2:53 am 02:53 Cloudy with Mist and Fog 45 7.2 44 6.7 97 97 VRB 3 6 30.16 1022 3 5 0.00 0.00
3:53 am 03:53 Cloudy with Mist and Fog 44 6.7 43 6.1 96 96 VRB 3 6 30.17 1022 4 6 0.00 0.00
4:53 am 04:53 Cloudy with Mist and Fog 44 6.7 43 6.1 96 96 ESE 3 6 30.18 1022 4 6 0.00 0.00
5:53 am 05:53 Cloudy with Mist and Fog 44 6.7 43 6.1 96 96 VRB 5 7 30.19 1022 5 8 0.00 0.00
6:53 am 06:53 Cloudy with Mist and Fog 44 6.7 43 6.1 96 96 VRB 3 6 30.20 1023 4 6 0.00 0.00
7:21 am 07:21 Cloudy with Mist and Fog 43 6.1 43 6.1 100 100 VRB 3 6 30.22 1023 2 3 0.00 0.00
7:39 am 07:39 Cloudy with Mist and Fog 43 6.1 43 6.1 100 100 Calm 30.23 1024 2 2 0.00 0.00
7:53 am 07:53 Cloudy with Mist and Fog 44 6.7 44 6.7 100 100 ESE 5 7 30.22 1023 1 1 0.00 0.00
8:04 am 08:04 Cloudy with Fog 43 6.1 43 6.1 100 100 VRB 3 6 30.23 1024 1 1 0.00 0.00
8:16 am 08:16 Cloudy with Mist and Fog 44 6.7 44 6.7 100 100 Calm 30.23 1024 1 1 0.00 0.00
8:41 am 08:41 Cloudy with Fog 44 6.7 44 6.7 100 100 Calm 30.23 1024 1 1 0.00 0.00
8:53 am 08:53 Cloudy with Mist and Fog 44 6.7 44 6.7 100 100 ESE 5 7 30.23 1024 1 1 0.00 0.00
9:15 am 09:15 Cloudy with Mist and Fog 45 7.2 45 7.2 100 100 Calm 30.24 1024 1 2 0.00 0.00
9:35 am 09:35 Cloudy with Mist and Fog 46 7.8 45 7.2 96 96 Calm 30.24 1024 2 3 0.00 0.00
9:53 am 09:53 Cloudy with Mist and Fog 46 7.8 46 7.8 100 100 Calm 30.24 1024 3 4 0.00 0.00
10:11 am 10:11 Cloudy with Mist and Fog 47 8.3 46 7.8 97 97 E 5 7 30.24 1024 3 5 0.00 0.00
10:53 am 10:53 Cloudy with Mist and Fog 50 10 48 8.9 93 93 SSE 5 7 30.24 1024 6 10 0.00 0.00
11:53 am 11:53 Cloudy with Mist and Fog 52 11.1 50 10 93 93 SE 5 7 30.23 1024 5 8 0.00 0.00
12:00 pm 12:00 Cloudy with Mist and Fog 53 11.7 50 10 89 89 VRB 3 6 30.22 1024 5 8 0.00 0.00
12:53 pm 12:53 Cloudy with Mist and Fog 54 12.2 51 10.6 90 90 S 5 7 30.22 1023 5 8 0.00 0.00
1:53 pm 13:53 Cloudy 58 14.4 54 12.2 87 87 S 3 6 30.19 1022 7 11 0.00 0.00
2:43 pm 14:43 Cloudy 60 15.6 55 12.8 84 84 Calm 30.17 1022 8 13 0.00 0.00
2:53 pm 14:53 Cloudy 61 16.1 56 13.3 84 84 VRB 5 7 30.19 1022 8 13 0.00 0.00
3:53 pm 15:53 Mostly Cloudy 63 17.2 56 13.3 78 78 SE 3 6 30.17 1022 10 16 0.00 0.00
4:44 pm 16:44 Mostly Sunny 64 17.8 57 13.9 78 78 SSW 5 7 30.15 1021 10 16 0.00 0.00
4:53 pm 16:53 Mostly Sunny 64 17.8 57 13.9 78 78 SSW 3 6 30.17 1022 10 16 0.00 0.00
5:53 pm 17:53 Sunny 64 17.8 56 13.3 75 75 Calm 30.16 1022 10 16 0.00 0.00
6:53 pm 18:53 Clear 59 15 55 12.8 87 87 Calm 30.18 1022 10 16 0.00 0.00
7:53 pm 19:53 Partly Cloudy 58 14.4 55 12.8 90 90 Calm 30.19 1022 9 14 0.00 0.00
8:53 pm 20:53 Clear 56 13.3 54 12.2 93 93 Calm 30.19 1022 8 13 0.00 0.00
9:53 pm 21:53 Clear 58 14.4 55 12.8 90 90 Calm 30.19 1022 8 13 0.00 0.00
10:53 pm 22:53 Clear 57 13.9 54 12.2 90 90 Calm 30.20 1023 8 13 0.00 0.00
11:53 pm 23:53 Mostly Cloudy 56 13.3 54 12.2 93 93 VRB 3 6 30.20 1023 7 11 0.00 0.00

Powered by AerisWeather